This demonstration page uses our WeatherBlox Daily Observations layout. Learn more.

Left ArrowRight Arrow

39.12711, -84.51439

Hourly Observations for July 20, 2020

Temp ( °F °C ) Dew Point ( °F °C ) Humidity (%) Winds ( mph kmh ) Pressure ( in mb ) Visibility ( mi km ) Precip ( " mm )
12:53 am 00:53 Mostly Clear 76 24.4 72 22.2 88 88 VRB 5 7 29.99 1016 10 16 0.00 0.00
1:53 am 01:53 Clear 74 23.3 72 22.2 94 94 Calm 29.98 1015 9 14 0.00 0.00
2:53 am 02:53 Mostly Cloudy 73 22.8 72 22.2 96 96 Calm 29.98 1015 8 13 0.00 0.00
3:53 am 03:53 Cloudy 74 23.3 72 22.2 94 94 Calm 29.99 1016 9 14 0.00 0.00
4:53 am 04:53 Cloudy 76 24.4 69 20.6 79 79 W 6 9 30.00 1016 10 16 0.00 0.00
5:53 am 05:53 Partly Cloudy 75 23.9 68 20 79 79 NW 3 6 30.01 1016 10 16 0.00 0.00
6:53 am 06:53 Sunny 72 22.2 69 20.6 91 91 Calm 29.99 1016 10 16 0.00 0.00
7:53 am 07:53 Sunny 74 23.3 71 21.7 91 91 SSW 3 6 30.00 1016 10 16 0.00 0.00
8:53 am 08:53 Sunny 77 25 70 21.1 79 79 S 3 6 30.02 1017 10 16 0.00 0.00
9:53 am 09:53 Sunny 81 27.2 69 20.6 67 67 VRB 3 6 30.02 1017 10 16 0.00 0.00
10:53 am 10:53 Sunny 82 27.8 70 21.1 67 67 NE 3 6 30.02 1017 10 16 0.00 0.00
11:53 am 11:53 Partly Cloudy 84 28.9 70 21.1 63 63 SSW 6 9 30.03 1017 10 16 0.00 0.00
12:53 pm 12:53 Partly Cloudy 85 29.4 68 20 57 57 Calm 30.01 1016 10 16 0.00 0.00
1:53 pm 13:53 Sunny 87 30.6 69 20.6 55 55 ESE 5 7 30.00 1016 10 16 0.00 0.00
2:53 pm 14:53 Sunny 90 32.2 65 18.3 44 44 Calm 29.97 1015 10 16 0.00 0.00
3:53 pm 15:53 Partly Cloudy 88 31.1 67 19.4 50 50 WSW 7 11 29.97 1015 10 16 0.00 0.00
4:53 pm 16:53 Partly Cloudy 91 32.8 65 18.3 42 42 Calm 29.95 1014 10 16 0.00 0.00
5:53 pm 17:53 Mostly Cloudy 89 31.7 67 19.4 48 48 WSW 5 7 29.95 1014 10 16 0.00 0.00
6:53 pm 18:53 Partly Cloudy 87 30.6 67 19.4 51 51 VRB 3 6 29.95 1014 10 16 0.00 0.00
7:53 pm 19:53 Mostly Cloudy 84 28.9 75 23.9 74 74 S 5 7 29.95 1014 10 16 0.00 0.00
8:53 pm 20:53 Partly Cloudy 80 26.7 70 21.1 71 71 S 6 9 29.96 1015 10 16 0.00 0.00
9:53 pm 21:53 Clear 78 25.6 71 21.7 79 79 Calm 29.98 1015 10 16 0.00 0.00
10:53 pm 22:53 Clear 76 24.4 71 21.7 85 85 Calm 29.99 1016 10 16 0.00 0.00
11:53 pm 23:53 Mostly Clear 74 23.3 71 21.7 91 91 Calm 30.00 1016 10 16 0.00 0.00

Powered by AerisWeather